Vorticity
nan nan nan nan nan nan nan nan nan nan nan nan nan nan nan nan nan nan nan nan nan nan nan nan nan nan nan nan nan nan nan nan nan nan nan nan nan nan nan nan nan nan nan
nan 7 6 7 6 8 9 9 6 4 4 5 5 8 9 9 8 10 10 9 7 7 7 8 8 7 7 9 7 7 7 8 9 7 8 6 6 11 11 10 9 8 nan
nan 12 8 6 7 8 9 8 8 5 5 3 2 5 6 8 9 9 11 10 10 7 7 7 8 7 8 7 8 8 8 7 8 10 8 7 9 6 8 11 12 9 nan
nan 11 11 10 8 9 8 9 8 6 6 6 7 6 4 5 7 8 10 11 9 7 7 7 7 7 8 8 8 7 6 8 8 6 9 11 11 6 7 9 10 10 nan
nan 9 10 10 9 8 8 8 10 7 7 6 6 5 5 6 8 10 10 9 9 9 7 7 8 7 8 9 8 7 7 6 8 8 7 7 8 9 10 8 6 9 nan
nan 9 7 6 8 8 8 8 9 8 7 7 7 7 4 5 5 8 8 9 10 10 9 9 7 8 8 9 8 9 8 7 7 8 8 8 8 8 7 10 10 8 nan
nan 10 8 6 8 10 6 7 7 7 9 7 6 7 6 6 5 6 8 8 8 10 11 8 7 8 9 9 9 9 9 8 8 8 7 8 8 9 8 9 11 9 nan
nan 10 11 8 6 9 8 7 6 6 8 7 6 7 6 5 7 6 8 9 9 10 10 8 7 8 7 8 8 8 9 9 9 7 7 8 9 8 9 8 7 8 nan
nan 10 10 8 7 9 9 8 7 7 7 6 6 7 9 8 7 7 6 8 10 11 11 10 8 8 8 8 7 7 9 9 9 9 7 7 8 7 8 8 9 9 nan
nan 9 12 10 7 8 10 9 9 8 7 7 6 7 7 8 8 8 8 6 9 11 11 10 9 8 8 7 7 7 9 7 7 11 8 6 8 9 8 8 8 9 nan
nan 7 9 11 9 7 10 9 10 8 7 8 8 7 7 7 7 8 8 7 7 11 10 11 10 9 9 7 6 7 9 8 6 7 9 7 7 7 8 8 8 9 nan
nan 8 12 10 10 8 9 9 9 9 9 8 8 8 8 9 7 6 8 9 6 7 11 11 11 10 9 9 7 7 8 9 8 7 8 7 7 7 8 9 8 9 nan
nan 8 9 11 10 8 8 10 10 9 8 8 8 9 8 8 9 8 6 7 10 7 9 11 11 10 10 9 8 8 8 8 9 9 8 8 6 6 7 9 9 8 nan
nan 9 8 9 10 10 8 9 8 10 10 9 9 8 9 8 8 9 9 7 7 9 7 8 11 10 11 10 9 8 7 7 8 10 9 9 7 6 5 8 8 8 nan
nan 8 7 8 10 9 8 9 10 11 10 8 8 9 9 8 9 9 10 9 7 7 9 7 8 10 9 10 11 9 9 8 7 8 9 10 11 8 3 4 7 7 nan
nan 10 8 7 8 10 9 9 10 11 9 9 8 8 9 9 9 8 9 9 9 8 8 8 8 6 9 14 11 6 7 9 8 7 8 10 12 13 12 6 5 3 nan
nan 15 12 10 10 11 10 10 9 9 9 9 9 10 10 9 9 9 9 10 9 9 9 8 8 8 10 15 13 6 4 9 9 8 7 8 11 12 12 12 12 9 nan
nan 18 18 13 14 16 13 10 13 11 9 9 9 10 10 10 10 10 9 9 10 10 10 10 9 9 11 14 13 11 6 6 8 10 9 8 8 10 11 10 11 11 nan
nan 10 13 15 20 17 13 11 9 10 9 10 9 11 11 9 9 9 9 9 9 9 11 11 11 9 12 13 10 7 9 10 10 9 9 10 9 13 11 9 8 9 nan
nan 10 12 13 11 16 21 17 11 9 9 10 10 10 11 11 9 10 9 9 9 9 10 11 12 11 13 14 12 4 6 10 12 12 13 13 12 13 10 7 7 5 nan
nan 12 14 14 12 15 15 15 21 16 12 13 13 12 11 11 11 9 10 10 10 10 10 11 12 13 13 15 15 5 2 8 9 10 12 16 18 10 9 8 4 6 nan
nan 16 13 10 12 15 14 13 10 17 19 14 13 14 14 12 15 14 11 12 11 11 10 11 11 13 15 16 14 12 5 1 7 9 10 13 15 15 10 8 8 9 nan
nan 11 11 10 9 10 10 8 7 15 20 16 10 12 13 13 14 13 11 12 13 11 12 11 10 10 12 17 21 16 13 6 6 8 10 12 12 12 15 16 16 12 nan
nan 9 9 10 10 9 9 7 9 11 10 13 17 15 12 11 12 14 13 11 12 11 11 11 11 11 11 10 14 16 16 16 14 13 12 14 15 13 12 16 17 15 nan
nan 11 9 9 9 10 10 8 8 10 10 10 16 16 15 11 7 9 17 20 18 18 16 14 14 13 15 14 11 13 12 12 11 16 16 14 13 12 13 12 13 14 nan
nan nan nan nan nan nan nan nan nan nan nan nan nan nan nan nan nan nan nan nan nan nan nan nan nan nan nan nan nan nan nan nan nan nan nan nan nan nan nan nan nan nan nan
CAPE
130 156 125 104 78 48 39 14 0 168 274 401 274 72 53 19 195 285 288 299 674 1074 1059 946 670 237 215 644 117 34 6 0 0 0 0 0 0 2 9 42 20 2 42
256 201 189 156 112 80 65 31 9 10 392 242 340 88 3 18 147 33 313 319 788 1079 1093 973 619 721 384 502 292 410 16 0 0 7 0 0 0 0 0 6 20 8 14
221 267 168 227 160 107 93 59 45 0 142 275 174 400 403 237 278 61 660 480 932 1275 1353 796 774 793 709 712 609 576 66 0 0 3 0 0 0 0 0 0 0 0 0
234 204 105 237 111 155 49 179 167 88 57 344 176 419 447 628 419 195 189 783 1018 1281 1181 1054 1002 870 672 835 710 758 329 0 0 0 2 1 0 0 0 0 0 0 0
264 130 67 37 56 138 140 187 435 243 173 559 278 260 343 463 338 108 53 682 837 1258 1097 947 908 800 770 352 551 995 622 124 1 0 0 0 0 0 0 0 0 0 0
300 236 136 76 96 204 210 261 655 399 325 647 510 392 324 325 296 198 71 313 764 784 1185 1172 942 785 1093 749 257 420 937 539 221 0 0 0 0 0 0 0 0 0 0
279 242 228 148 126 351 284 347 438 993 697 661 778 667 574 459 472 222 81 378 471 553 986 1423 1198 1022 1043 981 646 470 1054 562 875 234 31 0 0 0 0 0 0 0 0
119 257 276 213 159 460 475 351 507 814 1011 906 810 841 807 732 574 224 130 173 722 564 640 1331 1324 1263 1178 1030 762 724 914 1149 640 727 55 1 22 22 0 0 0 0 0
124 196 287 280 209 467 670 565 512 607 1125 1005 1060 1153 1057 915 807 409 335 110 628 959 804 1022 1503 1249 1347 995 1124 849 951 1517 1072 565 828 88 1 4 17 0 0 0 0
226 130 269 352 278 504 733 857 809 715 1170 1195 980 916 1008 1509 996 497 435 881 386 721 1172 1045 1526 1441 1289 1162 1247 1258 1052 1215 1331 917 598 632 275 26 0 0 0 0 0
319 40 266 407 358 423 721 1252 1189 1058 1320 1490 1424 1131 799 798 1631 818 175 247 779 482 659 1189 1193 1652 1462 1270 1128 1335 1636 1198 1293 1429 972 646 479 252 6 0 0 0 0
302 157 451 436 421 442 702 1174 1592 1386 1378 1661 1663 1560 1323 856 839 1626 829 335 424 929 505 1218 1288 1429 1677 1616 1420 1285 1502 1851 1426 1499 1348 1071 746 516 75 0 0 0 0
302 561 559 449 510 421 633 1025 1589 1665 1543 1562 1555 1560 1565 1302 937 990 1682 1064 439 664 1212 1476 1441 1370 1545 1628 1826 1610 1488 1452 1749 1581 1521 1470 1029 976 540 32 29 4 0
725 645 668 566 618 474 508 897 1101 1832 1710 1701 1680 1513 1655 1688 1471 1112 995 1666 1357 354 956 1536 1896 1701 1730 1586 1653 1920 1881 1714 1612 1608 1648 1594 1400 1321 977 376 87 30 51
749 756 802 737 747 611 536 907 1068 1493 1874 1903 1921 1823 1634 1817 1925 1774 1299 1147 1336 1655 780 1156 1431 2165 2053 1996 1926 1825 1843 2035 2019 1632 1834 1774 1664 1458 1276 957 512 60 49
937 1074 1016 950 940 805 682 843 973 1335 1853 2015 2064 2086 2117 1932 2023 2142 2089 1604 1399 1171 1667 1551 1904 1642 2238 2301 1802 1993 2067 1948 1914 1983 1730 1712 1771 1432 934 685 911 420 267
949 1234 1224 1115 1181 1016 813 822 883 1075 1756 2041 2100 2270 2278 2424 2320 2276 2312 2325 2169 1849 1263 1378 1889 1956 2028 2129 1338 1263 2090 2127 2098 2057 2022 2001 1873 1699 1812 367 165 288 59
0 0 491 942 1196 1143 967 864 919 1020 1166 1562 2157 2290 2521 2521 2583 2548 2455 2460 2450 2578 2364 1775 1609 2125 2062 1983 1142 558 1847 2236 2206 2258 2225 2173 2201 2056 1922 2067 952 606 701
0 62 50 6 239 1394 1383 1191 1068 1123 1207 1324 1447 2298 2495 2782 2740 2672 2688 2654 2681 2566 2587 2665 2382 1954 2062 2077 1317 250 1415 2067 2463 2517 2348 2402 2396 2303 1520 1956 2183 1623 1120
17 3 0 126 130 19 866 1605 1490 1497 1417 1423 1599 1654 2243 2617 2780 2794 2795 2878 2764 2798 2710 2667 2778 2735 2591 2195 1165 252 2087 2242 2355 2510 2650 2076 2205 2567 1673 1417 2150 2272 2200
791 657 1119 833 67 5 257 1176 1497 1915 1916 1799 1592 1772 1794 2222 2622 2753 2867 2898 3023 2901 2921 2939 2866 2975 2724 2886 1474 160 2202 2733 2780 2715 2761 2724 2259 1160 1279 421 2389 2496 2493
1068 1843 2623 2422 2352 1508 1071 1921 1993 1921 1548 1909 2123 2410 2535 2255 2450 2574 2692 2875 2886 3094 3120 3114 3253 3222 3160 2976 2074 443 269 2825 3088 3228 3241 3111 2816 1700 270 0 489 1163 875
167 588 1582 1887 1916 1847 1840 1932 1944 2195 2532 2122 2034 2157 2342 2718 2823 2934 2784 2865 3089 3126 3249 3357 3421 3493 3281 3331 2515 1325 101 15 1867 3236 3396 3214 2834 1369 36 0 10 0 551
6 178 540 1593 1604 1586 1556 1686 1600 1694 2009 2527 2875 2397 2450 2717 2636 3046 3306 3312 3426 3539 3571 3633 3690 3675 3470 3423 1631 540 66 3 1 0 567 1122 1491 1427 1108 511 65 0 172
0 11 303 978 1292 1024 922 858 1260 1368 1735 1908 3100 3574 3090 2814 2922 659 1550 3212 3409 3468 3785 3740 3820 3550 3170 258 0 24 200 246 33 118 583 905 1256 1761 2300 2446 2341 1459 376
0 37 206 858 1007 901 862 827 1050 1282 1370 1657 2670 3374 3482 3436 2822 185 0 0 0 2 497 831 16 0 0 0 0 0 0 1 2 0 132 609 906 1291 1679 2143 2306 1990 1387